SCP
1 1 0 0 0 0 0 0 0 0 0 0 0 0 0 0 0 0 0 0 0 0 0 0 0 0 0 0 0 0 0 0 0 0 0 0 0 0
1 1 0 0 0 0 0 0 0 0 0 0 0 0 0 0 0 0 0 0 0 0 0 0 0 0 0 0 0 0 0 0 0 0 0 0 0 0
1 0 0 0 0 0 0 0 0 0 0 0 0 0 0 0 0 0 0 0 0 0 0 0 0 0 0 0 0 0 0 0 0 0 0 0 0 0
0 0 0 0 0 0 0 0 0 0 0 0 0 0 0 0 0 0 0 0 0 0 0 0 0 0 0 0 0 0 0 0 0 0 0 0 0 0
0 0 0 0 0 0 0 0 0 0 0 0 0 0 0 0 0 0 0 0 0 0 0 0 0 0 0 0 0 0 0 0 0 0 0 0 0 0
0 0 0 0 0 0 0 0 0 0 0 0 0 0 0 0 0 0 0 0 0 0 0 0 0 0 0 0 0 0 0 0 0 0 0 0 0 0
0 0 0 0 0 0 0 0 0 0 0 0 0 0 0 0 0 0 0 0 0 0 0 0 0 0 0 0 0 0 0 0 0 0 0 0 0 0
0 0 0 0 0 0 0 0 0 0 0 0 0 0 0 0 0 0 0 0 0 0 0 0 0 0 0 0 0 0 0 0 0 0 0 0 0 0
0 0 0 0 0 0 0 0 0 0 0 0 0 0 0 0 0 0 0 0 0 0 0 0 0 0 0 0 0 0 0 0 0 0 0 0 0 0
0 0 0 0 0 0 0 0 0 0 0 0 0 0 0 0 0 0 0 0 0 0 0 0 0 0 0 0 0 0 0 0 0 0 0 0 0 0
0 0 0 0 0 0 0 0 0 0 0 0 0 0 0 0 0 0 0 0 0 0 0 0 0 0 0 0 0 0 0 0 0 0 0 0 0 0
0 0 0 0 0 0 0 0 0 0 0 0 0 0 0 0 0 0 0 0 0 0 0 0 0 0 0 0 0 0 0 0 0 0 0 0 0 0
0 0 0 0 0 0 0 0 0 0 0 0 0 0 0 0 0 0 0 0 0 0 0 0 0 0 0 0 0 0 0 0 0 0 0 0 0 0
0 0 0 0 0 0 0 0 0 0 0 0 0 0 0 0 0 0 0 0 0 0 0 0 0 0 0 0 0 0 0 0 0 0 0 0 0 0
0 0 0 0 0 0 0 0 0 0 0 0 0 0 0 0 0 0 0 0 0 0 0 0 0 0 0 0 0 0 0 0 0 0 0 0 0 0
0 0 0 0 0 0 0 0 0 0 0 0 0 0 0 0 0 0 0 0 0 0 0 0 0 0 0 0 0 0 0 0 0 0 0 0 0 0
0 0 0 0 0 0 0 0 0 0 0 0 0 0 0 0 0 0 0 0 0 0 0 0 0 0 0 0 0 0 0 0 0 0 0 0 0 0
0 0 0 0 0 0 0 0 0 0 0 0 0 0 0 0 0 0 0 0 0 0 0 0 0 0 0 0 0 0 0 0 0 0 0 0 0 0
0 0 0 0 0 0 0 0 0 0 0 0 0 0 0 0 0 0 0 0 0 0 0 0 0 0 0 0 0 0 0 0 0 0 0 0 0 0
0 0 0 0 0 0 0 0 0 0 0 0 0 0 0 0 0 0 0 0 0 0 0 0 0 0 0 0 0 0 0 0 0 0 0 0 0 0
0 0 0 0 0 0 0 0 0 0 0 0 0 0 0 0 0 0 0 0 0 0 0 0 0 0 0 0 0 0 0 0 0 0 0 0 0 0
0 0 0 0 0 0 0 0 0 0 0 0 0 0 0 0 0 0 0 0 0 0 0 0 0 0 0 0 0 0 0 0 0 0 0 0 0 0
0 0 0 0 0 0 0 0 0 0 0 0 0 0 0 0 0 0 0 0 0 0 0 0 0 0 0 0 0 0 0 0 0 0 0 0 0 0
Wind_Speed
1 1 1 0 0 0 1 2 3 4 3 2 2 3 3 3 6 5 6 10 10 9 9 9 9 8 7 7 6 5 4 3 1 3 4 4 5 6
1 2 2 1 2 1 1 0 1 2 1 2 2 3 3 3 6 5 6 8 10 10 9 9 8 8 7 6 5 3 2 1 2 3 4 5 5 6
3 3 3 3 2 2 2 1 1 0 2 2 2 2 3 4 4 4 4 5 5 10 9 8 7 7 6 5 4 4 3 3 3 4 4 5 6 7
4 4 4 3 4 3 2 3 2 1 2 3 2 2 3 3 3 4 4 3 4 8 8 8 7 7 6 5 5 4 4 4 4 5 6 7 8 9
5 5 5 5 5 4 4 4 3 3 2 3 3 2 2 2 2 2 3 3 3 4 5 5 6 6 6 5 5 5 5 5 5 6 7 8 9 10
6 6 5 5 5 5 4 4 3 4 4 4 3 2 2 1 1 1 1 2 2 3 3 3 4 4 4 5 5 6 6 7 8 8 9 9 9 10
7 6 6 7 7 5 4 4 4 3 3 3 3 2 2 1 1 1 2 2 1 2 3 2 3 2 2 2 3 5 7 8 8 9 9 9 10 10
7 6 7 7 9 10 9 8 6 3 3 2 2 2 2 1 1 1 2 3 1 2 4 3 3 3 2 2 5 8 8 8 8 9 9 9 10 10
5 5 4 5 6 6 7 8 8 8 5 2 2 2 2 1 0 1 2 3 3 4 4 3 2 3 2 3 6 8 7 6 6 7 7 9 10 10
5 5 4 4 4 4 4 4 4 5 4 2 2 2 1 1 0 1 2 4 4 2 2 4 3 4 4 4 2 4 4 4 5 7 8 9 10 11
4 3 3 3 5 4 3 3 3 4 4 4 4 3 3 2 2 2 2 3 3 1 1 3 3 5 5 3 1 3 5 6 8 9 9 10 11 12
4 3 2 2 4 3 2 3 2 2 2 2 2 2 1 1 1 2 2 2 3 2 1 2 3 4 5 2 3 3 5 6 8 10 11 12 12 9
3 3 2 2 3 3 2 2 1 1 2 2 2 2 2 1 1 1 1 2 3 3 1 2 3 3 4 5 4 4 4 5 6 7 9 10 11 9
3 3 3 3 3 3 3 2 2 2 2 2 2 2 2 2 1 2 3 3 4 5 4 3 4 4 4 5 6 5 5 6 7 7 6 7 9 11
2 3 4 4 4 4 4 3 3 3 3 3 3 2 2 2 2 3 3 4 6 6 6 6 6 6 6 6 6 7 6 6 6 5 5 6 6 7
4 4 5 4 4 4 4 4 3 3 3 4 3 2 2 3 3 3 3 3 4 5 4 6 7 7 7 9 9 9 8 7 5 6 7 8 8 8
4 4 4 4 5 4 4 4 4 4 4 4 3 3 3 4 4 3 3 4 4 4 4 4 5 7 9 9 9 10 9 8 8 8 7 8 8 8
7 5 5 5 5 5 5 5 5 5 4 4 4 4 4 4 4 4 4 5 6 6 5 4 4 5 5 8 12 11 8 8 7 7 8 9 10 9
8 6 6 6 6 5 5 5 5 5 4 4 5 5 5 5 5 5 5 5 6 6 6 5 5 5 6 7 5 10 8 7 8 8 8 9 11 10
8 7 7 6 6 6 6 6 5 5 5 5 6 5 5 5 6 6 6 7 6 6 6 6 6 6 7 7 7 6 9 10 9 9 9 9 11 14
8 8 7 7 6 6 6 6 6 6 6 6 6 6 6 6 6 6 6 9 8 7 8 7 6 7 6 6 8 9 9 11 13 11 10 10 11 11
8 8 7 7 7 7 6 6 6 7 7 7 7 6 6 6 7 8 7 7 7 8 9 8 6 6 6 8 11 12 12 11 12 18 20 18 10 8
9 8 8 7 7 7 7 8 9 7 7 7 7 7 7 7 7 7 8 8 8 8 9 8 7 7 8 9 11 11 14 14 11 10 11 15 21 26
Wind_Direction
234 221 201 86 42 309 252 240 240 239 214 134 100 45 31 33 21 20 25 29 29 31 35 38 42 39 41 44 49 61 62 68 141 193 214 226 245 260
93 114 94 78 74 58 59 265 259 255 194 104 82 48 38 40 32 31 37 38 39 37 40 43 46 47 51 49 45 38 22 338 276 259 259 263 268 274
90 97 89 80 84 72 71 83 76 183 169 117 93 59 49 41 40 39 33 33 38 36 36 39 42 42 39 35 29 20 5 334 304 290 286 283 281 281
103 101 95 91 83 72 77 81 75 57 139 140 115 81 62 44 39 42 36 30 31 33 29 32 34 29 25 21 16 11 0 342 324 308 297 290 286 285
96 99 99 99 90 80 77 79 76 73 82 123 118 103 83 51 44 48 42 28 26 23 22 24 21 11 4 359 354 346 336 321 306 296 291 289 287 286
86 86 86 90 95 94 84 82 87 92 98 111 117 116 103 68 18 10 15 19 11 7 2 352 344 335 339 336 332 325 314 302 292 287 284 282 281 280
92 85 82 84 83 80 81 84 90 100 108 115 123 128 122 117 49 9 336 328 24 1 329 326 320 311 309 304 311 314 303 296 290 285 283 280 278 278
105 96 91 86 87 85 80 72 65 83 107 120 130 138 131 105 52 356 336 325 321 29 327 316 318 308 317 319 333 316 303 296 291 289 288 287 285 283
114 110 98 91 90 93 89 85 75 64 57 82 130 133 133 109 8 319 348 325 315 348 325 300 319 307 320 318 322 313 305 299 297 297 295 292 288 285
115 117 120 117 106 112 110 97 88 78 69 68 89 91 77 79 275 286 297 290 283 279 306 294 321 316 317 308 337 323 323 323 317 309 302 297 294 290
119 122 129 127 124 132 133 127 121 107 85 69 59 66 58 20 322 274 288 299 295 283 338 297 319 319 305 292 272 280 294 305 307 302 298 297 295 292
145 142 141 147 146 163 169 168 172 148 151 156 163 162 182 137 263 277 282 280 288 292 70 310 316 328 310 293 287 281 280 283 286 289 293 293 292 287
170 175 166 170 178 179 203 207 198 205 211 225 232 223 224 226 239 271 275 258 265 269 336 327 296 299 289 300 297 284 283 289 290 288 286 283 280 275
187 188 184 199 213 203 211 208 199 214 233 237 244 243 245 250 262 279 276 268 261 267 282 273 264 268 280 287 283 288 289 287 285 286 287 281 272 266
195 197 205 208 210 214 216 211 209 227 238 241 244 245 252 268 269 264 258 255 259 256 250 239 244 255 255 263 277 288 299 293 286 278 278 279 280 276
199 199 209 210 221 228 216 215 229 242 248 251 253 251 243 241 248 258 270 279 280 266 225 224 235 243 252 258 265 273 275 277 280 279 282 280 274 266
191 200 209 211 216 217 221 226 226 226 232 240 243 245 245 248 252 254 258 264 263 274 271 249 236 240 249 259 264 263 266 266 267 274 276 277 274 269
204 218 221 222 226 227 226 226 225 226 227 230 236 243 247 250 255 253 252 256 264 269 273 274 276 280 265 246 231 253 263 267 271 271 271 276 279 275
220 227 229 228 228 229 231 231 230 225 219 226 234 238 241 245 249 253 253 256 262 267 270 267 261 260 275 285 255 218 248 272 279 278 274 272 277 281
225 230 230 229 229 229 228 228 229 224 219 225 230 234 236 240 245 250 252 255 263 269 270 261 250 246 255 278 286 273 251 263 272 276 280 280 279 281
223 228 230 229 228 227 227 226 225 226 225 225 230 232 231 235 243 247 252 257 259 263 266 266 262 262 266 268 267 266 264 251 253 263 276 280 283 281
226 227 227 226 225 224 223 222 223 225 225 226 230 231 230 232 240 246 249 254 256 259 267 271 270 261 251 254 265 277 284 282 270 264 259 255 261 269
226 226 226 223 222 221 220 221 223 227 226 226 228 229 229 232 237 242 247 249 255 260 265 271 270 262 257 258 266 274 280 285 284 282 270 258 253 255